Volver al catálogo

HULIANWANG DIGUI-68

ActivoComunicacionesPO
NORAD 65228·PAYLOAD·🇨🇳 China

Lanzado Aug 17, 2025 desde Taiyuan Satellite Launch Center

Loading…

Próximos Pases (próximas 24 horas)

TLE

ActualizadoSource: Space-Track

Época: Sep 14, 2026, 21:09 UTC

1 65228U 25178A   26257.88165476  .00000073  00000-0  13638-3 0  9997
2 65228  86.5041 343.2699 0001570 105.0086 255.1222 13.24413208 52181

Sigue HULIANWANG DIGUI-68 en tiempo real con AllMySat

Download on the App Store